User: anonymous   Login
Location: NJAA Observatory
(40.6819°N, 74.8979°W)
Time: 00:49:58
(UTC-04:00)
Language:

Cosmos 1633 - Orbit

View from above orbital plane
View from above orbital plane
View from above satellite
View from above satellite

Ground track
Ground track

The orbit data is extracted from the following two-line orbital elements,

1 15592U 85020A   17207.79402069 +.00001008 +00000-0 +34834-4 0  9996
2 15592 082.5387 279.6262 0014624 043.1059 317.1322 15.28586218770065
Epoch (UTC): 26 July 2017 19:03:23
Eccentricity: 0.0014624
inclination: 82.5387°
perigee height: 470 km
apogee height: 490 km
right ascension of ascending node: 279.6262°
argument of perigee: 43.1059°
revolutions per day: 15.28586218
mean anomaly at epoch: 317.1322°
orbit number at epoch: 77006

The dashed part of the orbit path shows where the satellite is in the earth's shadow,  

DLR